STARLINK-34934 (65897 NORAD) Tracking and Keplerian Element Data

This shows tracking and keplerian element data for the satellite.

Feedback or suggestion? Click here.




ElementValue
Catalog65897
NameSTARLINK-34934
Epoch Orbit1264
Epoch Day354.11761813
Epoch Year2025
RAAN20.7894
Inclination53.1617
Eccentricity0.0001471
Argument of Perigee98.8374
Mean Anonmoly261.2793
Mean Motion15.30202888
Decay Rate0.00011798
L11 65897U 25224R 25354.11761813 .00011798 00000+0 40981-3 0 9997
L22 65897 53.1617 20.7894 0001471 98.8374 261.2793 15.30202888 12642



Live tracking and technical data element details for STARLINK-34934 (NORAD 65897). STARLINK-34934 can be tracked NOW for your location showing map with azimuth and elevation plus other details from your city location.







IsCatalogInMostPopularTable: catalog: 65897, numindb: 3
Update: records affected: 1



GetName: 65897 STARLINK-34934

Hit Count: updated at: Sat, 07 Feb 2026 07:28:14 GMT